Miscellaneous Local Product
Issued by NWS North Platte, NE

Home | Current Version | Previous Version | Text Only | Print | Product List | Glossary On
Versions: 1 2 3 4 5 6 7 8 9 10 11 12 13 14 15 16 17 18 19 20 21 22 23 24 25 26 27 28 29 30 31 32 33 34 35 36 37 38 39 40 41 42 43 44 45 46 47 48 49 50
000
AXUS43 KLBF 301810
MISLBF


WESTERN AND NORTH CENTRAL NEBRASKA HOURLY WEATHER ROUNDUP
NATIONAL WEATHER SERVICE NORTH PLATTE NE
1200 PM CST FRI JAN 30 2015

***STATIONS NOT REPORTING VARIABLES SUCH AS SKY/WEATHER OR
PRESSURE ARE PROVIDED BY THE NEBRASKA DEPARTMENT OF
ROADS...RAWS...AND APRS NETWORKS...AND ARE NOT UNDER
NATIONAL WEATHER SERVICE QUALITY CONTROL***

...OBSERVATIONS IN AND NEAR THE EASTERN PANHANDLE OF NEBRASKA...

CITY           SKY/WX    TMP DP  RH WIND       PRES   REMARKS
PINE RIDGE     MOSUNNY   46  23  40 SW7       30.18F
CHADRON        MOSUNNY   44  24  45 W3        30.18F
ALLIANCE       PTSUNNY   43  24  47 SW6       30.17F
SIDNEY         PTSUNNY   41  26  55 S8        30.18F
WHITECLAY        N/A     44  22  41 CALM        N/A
CRESCENT LAKE    N/A     41  24  51 S6          N/A
LISCO            N/A     42  22  44 E3          N/A
LEWELLEN         N/A     40  24  52 S12         N/A  WCI  34
$$

...OBSERVATIONS IN NORTH CENTRAL NEBRASKA...

CITY           SKY/WX    TMP DP  RH WIND       PRES   REMARKS
VALENTINE      PTSUNNY   45  24  43 S21       30.20F
THEDFORD       PTSUNNY   46  25  44 S13       30.25F
AINSWORTH      PTSUNNY   41  26  54 S20       30.23F
O`NEILL        MOSUNNY   38  29  69 S17       30.30F WCI  29
ORD            PTSUNNY   35  26  69 S12       30.34F WCI  27
BROKEN BOW     PTSUNNY   40  27  59 S14       30.31F WCI  32
BROWNLEE         N/A     47  27  46 S15         N/A
VALENTINE NWR    N/A     39  27  62 S14         N/A  WCI  31
SPRINGVIEW       N/A     42  28  58 SW7G15      N/A
HALSEY           N/A     42  24  49 S9G20       N/A
BREWSTER         N/A     45  25  45 S18         N/A
ROSE             N/A     38  30  72 SE13        N/A  WCI  30
NEWPORT          N/A     40  27  60 S14         N/A  WCI  32
SARGENT          N/A     37  29  72 S3          N/A
COMSTOCK         N/A     40  29  65 S10         N/A  WCI  34
CHAMBERS         N/A     38  26  61 S8G22       N/A  WCI  32
EWING            N/A     37  30  77 S12G20      N/A  WCI  29
$$

...OBSERVATIONS IN SOUTHWEST NEBRASKA AND FAR NORTHEAST COLORADO...

CITY           SKY/WX    TMP DP  RH WIND       PRES   REMARKS
WRAY           FAIR      51  31  46 S15G21    30.22F
IMPERIAL       PTSUNNY   45  27  49 S14       30.24F
OGALLALA       PTSUNNY   42  28  58 S9        30.22F
NORTH PLATTE   CLOUDY    42  25  50 S17       30.25F
MCCOOK         CLOUDY    44  26  49 S14       30.30F
LEXINGTON      CLOUDY    41  27  55 S16G23    30.32F
BRADY            N/A     42  27  54 CALM        N/A
GOTHENBURG       N/A     41  24  51 S12         N/A
CALLAWAY         N/A     40  29  65 S18         N/A  WCI  31
$$

...NORTH PLATTE AREA...

CITY           SKY/WX    TMP DP  RH WIND       PRES   REMARKS
AIRPORT        CLOUDY    42  25  50 S17       30.25F
DOWNTOWN         N/A     42  27  55 S9G16       N/A
$$

...SOME WEATHER OBSERVATIONS FROM AROUND THE REGION...

CITY           SKY/WX    TMP DP  RH WIND       PRES   REMARKS
DENVER         CLOUDY    41  26  55 CALM      30.18F
LARAMIE        PTSUNNY   36  24  62 N7        30.18F WCI  30
CHEYENNE       PTSUNNY   44  25  47 N12G17    30.16F
SCOTTSBLUFF    PTSUNNY   38  26  62 W6        30.18F WCI  33
RAPID CITY     PTSUNNY   45  24  43 N14       30.17F
PIERRE         MOSUNNY   37  26  64 S5        30.20S WCI  33
WINNER         FAIR      46  26  45 S20       30.19F
SIOUX FALLS    MOSUNNY   30  23  75 S16       30.35F WCI  19
OMAHA          PTSUNNY   29  19  66 S8        30.49F WCI  21
GRAND ISLAND   PTSUNNY   37  27  67 S13       30.41F WCI  29
KANSAS CITY    CLOUDY    32  21  64 VRB3      30.53F
WICHITA        CLOUDY   N/A N/A N/A SE8       30.50F
HAYS           CLOUDY    41  23  48 S16G23    30.41F
LIBERAL        CLOUDY    41  27  56 S15       30.41F
GOODLAND       CLOUDY    46  28  49 S20G29    30.26F
$$



USA.gov is the U.S. government's official web portal to all federal, state and local government web resources and services.